Location: Bergnershof
(48.9468°N, 10.9431°E)
Time: 00:12:14
(UTC+00:00)

CZ-2C R/B - Pass Details

Date: 03 March 2021
Orbit: 784 x 871 km, 98.2° (Epoch: 12 April)

Event Time Altitude Azimuth Distance (km) Brightness Sun altitude
Rises 17:59:42 0° 18° (NNE) 3,436 5.7 -10.1°
Reaches altitude 10° 18:02:12 10° 24° (NNE) 2,484 4.9 -10.5°
Maximum altitude 18:07:31 48° 98° (E) 1,081 2.9 -11.4°
Drops below altitude 10° 18:12:41 10° 173° (S) 2,411 5.0 -12.2°
Sets 18:15:05 0° 179° (S) 3,325 5.7 -12.6°
